This is the latest recevied weather packets stored in our database for station/object N4PWG. If no packets are shown the sender has not sent any weather packets the latest 10 day(s).
| Time | Temp. | Humidity | Pressure | Rain* | Wind** | Luminosity | Snow |
|---|---|---|---|---|---|---|---|
| 1778051633 | 10° C | 99% | 1027 hPa | 0 mm | - | 0 W/m² | - |
| 1778051329 | 10° C | 99% | 1027 hPa | 0 mm | - | 0 W/m² | - |
| 1778051026 | 10° C | 99% | 1026.9 hPa | 0 mm | - | 0 W/m² | - |
| 1778050723 | 10° C | 99% | 1026.9 hPa | 0 mm | - | 0 W/m² | - |
| 1778050421 | 10.56° C | 99% | 1027.2 hPa | 0 mm | - | 0 W/m² | - |
| 1778050117 | 10.56° C | 99% | 1027.3 hPa | 0 mm | - | 0 W/m² | - |
| 1778049813 | 10.56° C | 99% | 1027.5 hPa | 0 mm | - | 0 W/m² | - |
| 1778049510 | 10.56° C | 99% | 1026.9 hPa | 0 mm | - | 0 W/m² | - |
| 1778049208 | 10.56° C | 99% | 1027 hPa | 0 mm | - | 0 W/m² | - |
| 1778048906 | 10.56° C | 99% | 1027.1 hPa | 1.27 mm | - | 0 W/m² | - |
| 1778048603 | 10.56° C | 99% | 1027 hPa | 7.11 mm | - | 0 W/m² | - |
| 1778048299 | 10.56° C | 99% | 1026.8 hPa | 6.1 mm | - | 0 W/m² | - |
| 1778047996 | 10.56° C | 99% | 1026.4 hPa | 0 mm | - | 0 W/m² | - |
| 1778047694 | 10.56° C | 99% | 1025.9 hPa | 1.78 mm | - | 0 W/m² | - |
| 1778047393 | 10.56° C | 99% | 1026 hPa | 1.78 mm | - | 0 W/m² | - |
| 1778047089 | 10.56° C | 99% | 1026.2 hPa | 3.05 mm | - | 0 W/m² | - |
| 1778046786 | 10.56° C | 99% | 1025.8 hPa | 3.05 mm | - | 0 W/m² | - |
| 1778046483 | 10.56° C | 99% | 1025.9 hPa | 0 mm | - | 0 W/m² | - |
| 1778046180 | 10.56° C | 99% | 1025.9 hPa | 0 mm | - | 0 W/m² | - |
| 1778045876 | 10.56° C | 99% | 1026.1 hPa | 0 mm | - | 0 W/m² | - |
| 1778045576 | 10.56° C | 99% | 1025.9 hPa | 0 mm | - | 0 W/m² | - |
| 1778045272 | 10.56° C | 99% | 1025.9 hPa | 0 mm | - | 0 W/m² | - |
| 1778044971 | 11.11° C | 99% | 1025.5 hPa | 1.27 mm | - | 0 W/m² | - |
| 1778044667 | 11.11° C | 99% | 1025.8 hPa | 1.27 mm | - | 0 W/m² | - |
| 1778044363 | 11.11° C | 99% | 1025.4 hPa | 4.83 mm | - | 0 W/m² | - |
* Rain latest hour (hover to see other rain measurements)
** Current wind speed in m/s (hover to see current wind gust speed)